Location: Maccacari
(45.1333°N, 11.1333°E)
Time: 14:29:44
(UTC+00:00)

Explorer 11/Cluster Stage 4 - Visible Passes

Search period start: 25 January 2021 00:00
Search period end: 04 February 2021 00:00
Orbit: 467 x 1258 km, 28.8° (Epoch: 25 January)

Date Brightness Start Highest point End Pass type
(mag) Time Alt. Az. Time Alt. Az. Time Alt. Az.
30 Jan 8.9 19:16:49 10° SSW 19:16:58 10° SSW 19:16:58 10° SSW visible
31 Jan 8.8 19:06:19 10° SSW 19:06:42 11° SSW 19:06:42 11° SSW visible
01 Feb 8.7 18:56:12 10° S 18:56:28 10° S 18:56:28 10° S visible
